Location: Sevilla
(37.3933°N, 5.9839°W)
Time: 23:29:56
(UTC+02:00)

Tiros 1 - All Passes

Search period start: 23 June 2024 00:00
Search period end: 03 July 2024 00:00
Orbit: 624 x 657 km, 48.4° (Epoch: 23 June)

Date Brightness Start Highest point End Pass type
(mag) Time Alt. Az. Time Alt. Az. Time Alt. Az.
23 Jun - 01:03:37 10° SSW 01:07:55 42° SE 01:12:15 10° ENE visible
23 Jun - 02:45:38 10° W 02:49:59 41° NNW 02:54:22 10° NE visible
23 Jun - 04:29:24 10° NW 04:32:55 21° N 04:36:28 10° NE visible
23 Jun - 06:12:11 10° NW 06:16:06 26° NNE 06:20:04 10° ENE visible
23 Jun - 07:54:00 10° NW 07:58:40 80° NNE 08:03:22 10° ESE daylight
23 Jun - 09:37:06 10° W 09:40:17 18° SW 09:43:30 10° S daylight
23 Jun - 23:47:30 10° SSE 23:50:12 16° SE 23:52:54 10° E night (unlit)
24 Jun - 01:27:09 10° SW 01:31:44 88° NNW 01:36:20 10° NE visible
24 Jun - 03:10:17 10° WNW 03:14:13 27° NNW 03:18:11 10° NE visible
24 Jun - 04:53:52 10° NW 04:57:23 21° N 05:00:55 10° NE visible
24 Jun - 06:36:00 10° NW 06:40:22 39° NNE 06:44:45 10° E daylight
24 Jun - 08:18:01 10° WNW 08:22:30 48° SW 08:27:01 10° SSE daylight
25 Jun - 00:09:35 10° SSW 00:13:46 36° SE 00:17:58 10° ENE visible
25 Jun - 01:51:19 10° W 01:55:43 46° NNW 02:00:10 10° NE visible
25 Jun - 03:35:02 10° WNW 03:38:36 22° N 03:42:11 10° NE visible
25 Jun - 05:17:59 10° NW 05:21:48 25° NNE 05:25:38 10° ENE visible
25 Jun - 06:59:48 10° NW 07:04:27 70° NNE 07:09:07 10° ESE daylight
25 Jun - 08:42:36 10° W 08:46:08 21° SW 08:49:42 10° S daylight
25 Jun - 22:54:00 10° SSE 22:56:05 13° SE 22:58:09 10° ESE visible
26 Jun - 00:32:56 10° SW 00:37:30 80° SE 00:42:07 10° ENE visible
26 Jun - 02:15:55 10° W 02:19:55 29° NNW 02:23:58 10° NE visible
26 Jun - 03:59:35 10° NW 04:03:03 20° N 04:06:33 10° NE visible
26 Jun - 05:41:49 10° NW 05:46:05 35° NNE 05:50:23 10° E visible
26 Jun - 07:23:45 10° WNW 07:28:18 56° SW 07:32:53 10° SE daylight
26 Jun - 23:15:36 10° SSW 23:19:36 30° SE 23:23:37 10° ENE visible
27 Jun - 00:57:00 10° WSW 01:01:28 52° NNW 01:05:58 10° NE visible
27 Jun - 02:40:41 10° WNW 02:44:17 22° N 02:47:55 10° NE visible
27 Jun - 04:23:45 10° NW 04:27:29 23° NNE 04:31:14 10° ENE visible
27 Jun - 06:05:36 10° NW 06:10:12 62° NNE 06:14:49 10° ESE visible
27 Jun - 07:48:10 10° W 07:51:58 25° SW 07:55:48 10° S daylight
27 Jun - 22:00:57 10° SE 22:01:57 11° SE 22:02:56 10° ESE daylight
27 Jun - 23:38:46 10° SW 23:43:18 69° SE 23:47:52 10° ENE visible
28 Jun - 01:21:32 10° W 01:25:38 31° NNW 01:29:45 10° NE visible
28 Jun - 03:05:16 10° NW 03:08:43 20° N 03:12:11 10° NE visible
28 Jun - 04:47:38 10° NW 04:51:48 32° NNE 04:55:59 10° E visible
28 Jun - 06:29:30 10° WNW 06:34:06 66° SW 06:38:43 10° SE visible
28 Jun - 08:14:47 10° WSW 08:15:28 10° SW 08:16:09 10° SW daylight
28 Jun - 22:21:38 10° S 22:25:26 26° SE 22:29:14 10° ENE visible
29 Jun - 00:02:42 10° WSW 00:07:13 59° NNW 00:11:45 10° NE visible
29 Jun - 01:46:17 10° WNW 01:49:57 23° N 01:53:39 10° NE visible
29 Jun - 03:29:31 10° NW 03:33:09 22° N 03:36:49 10° ENE visible
29 Jun - 05:11:25 10° NW 05:15:56 54° NNE 05:20:30 10° ESE visible
29 Jun - 06:53:47 10° WNW 06:57:48 29° SW 07:01:50 10° SSE daylight
29 Jun - 22:44:36 10° SW 22:49:06 59° SE 22:53:37 10° ENE visible
30 Jun - 00:27:09 10° W 00:31:20 34° NNW 00:35:32 10° NE visible
30 Jun - 02:10:56 10° NW 02:14:23 20° N 02:17:50 10° NE visible
30 Jun - 03:53:26 10° NW 03:57:29 30° NNE 04:01:34 10° E visible
30 Jun - 05:35:16 10° WNW 05:39:53 77° SW 05:44:32 10° SE visible
30 Jun - 07:19:22 10° WSW 07:21:19 12° SW 07:23:17 10° SSW daylight
30 Jun - 21:27:44 10° S 21:31:16 22° SE 21:34:48 10° E daylight
30 Jun - 23:08:24 10° WSW 23:12:58 67° NNW 23:17:32 10° NE visible
01 Jul - 00:51:53 10° WNW 00:55:37 24° NNW 00:59:23 10° NE visible
01 Jul - 02:35:15 10° NW 02:38:49 22° N 02:42:24 10° ENE visible
01 Jul - 04:17:12 10° NW 04:21:40 48° NNE 04:26:09 10° ESE visible
01 Jul - 05:59:26 10° WNW 06:03:37 34° SW 06:07:49 10° SSE visible
01 Jul - 21:50:28 10° SW 21:54:54 50° SE 21:59:20 10° ENE daylight
01 Jul - 23:32:47 10° W 23:37:02 37° NNW 23:41:19 10° NE visible
02 Jul - 01:16:35 10° NW 01:20:02 20° N 01:23:30 10° NE visible
02 Jul - 02:59:12 10° NW 03:03:11 28° NNE 03:07:10 10° ENE visible
02 Jul - 04:41:01 10° NW 04:45:38 88° SW 04:50:17 10° SE visible
02 Jul - 06:24:33 10° W 06:27:10 15° SW 06:29:47 10° SSW visible
02 Jul - 20:33:54 10° S 20:37:06 19° SE 20:40:18 10° E daylight
02 Jul - 22:14:08 10° WSW 22:18:43 77° NW 22:23:18 10° NE visible
